IZ1GCT Weather Reports


Display with metric or nautical units.
time (UTC)temp
F
wind
direction
speed
MPH
gust
MPH
rain 1hr
in
rain 24hr
in
rain mn
in
humidity
%
barometer
mb
20260905123411 96 8 10.0 13.0 0.00 0.00 0.00 13 1020.8
20260905122911 95 251 9.0 13.0 0.00 0.00 0.00 13 1021.0
20260905122410 95 302 13.0 18.0 0.00 0.00 0.00 13 1020.9
20260905121910 95 290 9.0 16.0 0.00 0.00 0.00 13 1020.9
20260905121411 95 10 12.0 17.0 0.00 0.00 0.00 13 1021.0
20260905120910 94 347 12.0 20.0 0.00 0.00 0.00 13 1020.8
20260905120410 95 244 7.0 9.0 0.00 0.00 0.00 13 1020.9
20260905115911 95 270 12.0 16.0 0.00 0.00 0.00 13 1020.8
20260905115410 95 298 8.0 12.0 0.00 0.00 0.00 13 1020.9
20260905114910 95 312 7.0 10.0 0.00 0.00 0.00 13 1020.9
20260905114411 95 270 12.0 15.0 0.00 0.00 0.00 13 1021.0
20260905113911 94 286 5.0 10.0 0.00 0.00 0.00 13 1020.8
20260905113410 94 290 8.0 15.0 0.00 0.00 0.00 13 1021.0
20260905112911 94 318 12.0 17.0 0.00 0.00 0.00 13 1020.9
20260905112411 95 343 15.0 20.0 0.00 0.00 0.00 13 1021.0
20260905111910 95 315 15.0 21.0 0.00 0.00 0.00 13 1021.0
20260905111409 94 314 10.0 17.0 0.00 0.00 0.00 13 1021.1
20260905110911 94 230 9.0 15.0 0.00 0.00 0.00 13 1021.2
20260905110410 94 277 15.0 20.0 0.00 0.00 0.00 13 1021.4
20260905105909 94 270 9.0 10.0 0.00 0.00 0.00 13 1021.3
20260905105411 94 289 9.0 16.0 0.00 0.00 0.00 13 1021.4
20260905104910 94 334 17.0 23.0 0.00 0.00 0.00 13 1021.4
20260905104411 93 270 14.0 20.0 0.00 0.00 0.00 14 1021.4
20260905103910 94 289 8.0 13.0 0.00 0.00 0.00 14 1021.2
20260905103410 93 298 10.0 22.0 0.00 0.00 0.00 13 1021.3
20260905102911 94 248 14.0 20.0 0.00 0.00 0.00 14 1021.5
20260905102410 94 270 17.0 26.0 0.00 0.00 0.00 14 1021.5
20260905101910 94 270 12.0 20.0 0.00 0.00 0.00 14 1021.5
20260905101409 93 265 6.0 8.0 0.00 0.00 0.00 14 1021.4
20260905100910 93 304 15.0 21.0 0.00 0.00 0.00 14 1021.5
20260905100412 92 315 21.0 29.0 0.00 0.00 0.00 14 1021.5
20260905095910 93 45 16.0 23.0 0.00 0.00 0.00 14 1021.5
20260905095410 93 307 17.0 23.0 0.00 0.00 0.00 14 1021.5
20260905094909 93 288 7.0 17.0 0.00 0.00 0.00 13 1021.5
20260905094411 93 271 13.0 21.0 0.00 0.00 0.00 14 1021.5
20260905093910 92 270 13.0 17.0 0.00 0.00 0.00 13 1021.6
20260905093410 92 270 10.0 15.0 0.00 0.00 0.00 13 1021.7
20260905092911 92 267 8.0 15.0 0.00 0.00 0.00 14 1021.4
20260905092411 91 315 16.0 21.0 0.00 0.00 0.00 13 1021.5
20260905091910 91 135 12.0 17.0 0.00 0.00 0.00 13 1021.6
20260905091410 91 135 12.0 17.0 0.00 0.00 0.00 13 1021.6
20260905090911 91 135 15.0 20.0 0.00 0.00 0.00 13 1021.6
20260905090411 90 135 13.0 18.0 0.00 0.00 0.00 13 1021.7
20260905085910 90 135 8.0 10.0 0.00 0.00 0.00 13 1021.7
20260905085410 90 135 15.0 20.0 0.00 0.00 0.00 16 1021.8
20260905084909 90 135 8.0 14.0 0.00 0.00 0.00 20 1021.6
20260905084411 90 135 7.0 10.0 0.00 0.00 0.00 20 1021.6
20260905083910 89 135 8.0 17.0 0.00 0.00 0.00 20 1021.7
20260905083409 89 135 9.0 16.0 0.00 0.00 0.00 20 1021.7
20260905082911 89 150 9.0 17.0 0.00 0.00 0.00 20 1021.7
20260905082410 88 135 12.0 17.0 0.00 0.00 0.00 20 1021.7
20260905081909 88 135 10.0 15.0 0.00 0.00 0.00 20 1021.7
20260905081410 88 135 9.0 14.0 0.00 0.00 0.00 21 1021.7
20260905080911 87 135 7.0 10.0 0.00 0.00 0.00 21 1021.6
20260905080410 87 135 9.0 15.0 0.00 0.00 0.00 21 1021.8
20260905075910 87 135 8.0 12.0 0.00 0.00 0.00 23 1021.9
20260905075409 87 135 7.0 12.0 0.00 0.00 0.00 21 1021.9
20260905074911 86 135 8.0 17.0 0.00 0.00 0.00 23 1021.8
20260905074410 86 135 12.0 14.0 0.00 0.00 0.00 24 1022.0
20260905073910 85 135 8.0 14.0 0.00 0.00 0.00 23 1022.0
20260905073409 85 135 10.0 14.0 0.00 0.00 0.00 23 1021.9
20260905072911 86 135 9.0 15.0 0.00 0.00 0.00 23 1021.9
20260905072410 86 135 7.0 10.0 0.00 0.00 0.00 25 1021.9
20260905071909 86 135 5.0 7.0 0.00 0.00 0.00 26 1021.8
20260905071411 84 135 3.0 6.0 0.00 0.00 0.00 30 1021.9
20260905070910 81 135 2.0 3.0 0.00 0.00 0.00 38 1022.1
20260905070409 80 158 1.0 2.0 0.00 0.00 0.00 45 1021.8
20260905065911 78 135 1.0 2.0 0.00 0.00 0.00 43 1021.9
20260905065410 77 135 6.0 8.0 0.00 0.00 0.00 38 1021.8
20260905064910 75 130 1.0 2.0 0.00 0.00 0.00 55 1021.9
20260905064411 72 90 1.0 2.0 0.00 0.00 0.00 59 1021.8
20260905063911 72 135 0.0 1.0 0.00 0.00 0.00 61 1021.9
20260905063410 70 73 1.0 3.0 0.00 0.00 0.00 62 1022.0
20260905062909 70 135 5.0 7.0 0.00 0.00 0.00 63 1022.0
20260905062411 69 150 5.0 6.0 0.00 0.00 0.00 65 1022.1
20260905061910 68 149 2.0 3.0 0.00 0.00 0.00 64 1022.1
20260905061409 68 135 0.0 0.0 0.00 0.00 0.00 66 1022.0
20260905060911 67 154 2.0 6.0 0.00 0.00 0.00 66 1022.0
20260905060410 67 142 3.0 5.0 0.00 0.00 0.00 66 1021.9
20260905055911 66 135 1.0 2.0 0.00 0.00 0.00 67 1021.9
20260905055410 66 141 3.0 7.0 0.00 0.00 0.00 67 1021.6
20260905054912 66 135 3.0 5.0 0.00 0.00 0.00 68 1021.7
20260905054410 65 135 2.0 3.0 0.00 0.00 0.00 70 1021.7
20260905053909 64 135 3.0 6.0 0.00 0.00 0.00 71 1021.6
20260905053411 63 145 5.0 6.0 0.00 0.00 0.00 76 1021.6
20260905052910 62 135 5.0 6.0 0.00 0.00 0.00 76 1021.6
20260905052409 62 158 3.0 5.0 0.00 0.00 0.00 76 1021.5
20260905051911 62 158 1.0 3.0 0.00 0.00 0.00 75 1021.5
20260905051410 63 135 2.0 3.0 0.00 0.00 0.00 74 1021.5
20260905050910 63 123 2.0 3.0 0.00 0.00 0.00 75 1021.5
20260905050409 62 158 6.0 7.0 0.00 0.00 0.00 76 1021.3
20260905045910 62 158 1.0 2.0 0.00 0.00 0.00 75 1021.3
20260905045410 62 135 0.0 1.0 0.00 0.00 0.00 75 1021.2
20260905044909 62 135 0.0 1.0 0.00 0.00 0.00 75 1021.2
20260905044411 62 126 3.0 5.0 0.00 0.00 0.00 75 1021.2
20260905043910 63 135 1.0 2.0 0.00 0.00 0.00 75 1021.3
20260905043410 63 135 1.0 1.0 0.00 0.00 0.00 75 1021.2
20260905042910 63 158 1.0 2.0 0.00 0.00 0.00 75 1021.2
20260905042411 62 135 2.0 5.0 0.00 0.00 0.00 75 1021.2
20260905041910 63 135 1.0 3.0 0.00 0.00 0.00 74 1021.2
20260905041410 63 158 1.0 2.0 0.00 0.00 0.00 75 1021.2
20260905040909 62 143 1.0 2.0 0.00 0.00 0.00 76 1021.2
20260905040410 62 158 2.0 3.0 0.00 0.00 0.00 76 1021.4
20260905035416 62 135 2.0 5.0 0.00 0.00 0.00 76 1021.2
20260905034915 62 112 1.0 2.0 0.00 0.00 0.00 75 1021.2
20260905034417 63 119 0.0 0.0 0.00 0.00 0.00 75 1021.2
20260905033915 63 112 0.0 1.0 0.00 0.00 0.00 74 1021.2
20260905033417 63 135 0.0 1.0 0.00 0.00 0.00 74 1021.2
20260905032916 63 135 1.0 3.0 0.00 0.00 0.00 74 1021.2
20260905032416 63 151 3.0 3.0 0.00 0.00 0.00 75 1021.3
20260905031916 63 149 2.0 3.0 0.00 0.00 0.00 75 1021.3
20260905031415 63 135 0.0 1.0 0.00 0.00 0.00 75 1021.5
20260905030916 63 135 1.0 3.0 0.00 0.00 0.00 75 1021.4
20260905030416 63 158 5.0 5.0 0.00 0.00 0.00 75 1021.4
20260905025915 64 135 3.0 3.0 0.00 0.00 0.00 72 1021.3
20260905025417 64 135 1.0 1.0 0.00 0.00 0.00 72 1021.4
20260905024917 64 157 0.0 1.0 0.00 0.00 0.00 71 1021.5
20260905024416 65 147 1.0 2.0 0.00 0.00 0.00 71 1021.5
20260905023916 65 158 2.0 3.0 0.00 0.00 0.00 71 1021.3
20260905023415 64 131 2.0 5.0 0.00 0.00 0.00 72 1021.4
20260905022917 64 135 2.0 3.0 0.00 0.00 0.00 73 1021.4
20260905022416 64 135 2.0 5.0 0.00 0.00 0.00 73 1021.4
20260905021915 64 157 3.0 3.0 0.00 0.00 0.00 73 1021.6
20260905021417 64 158 2.0 3.0 0.00 0.00 0.00 73 1021.6
20260905020916 64 158 2.0 3.0 0.00 0.00 0.00 72 1021.5
20260905020416 64 135 2.0 3.0 0.00 0.00 0.00 72 1021.4
20260905015915 65 145 1.0 2.0 0.00 0.00 0.00 72 1021.3
20260905015416 65 138 1.0 3.0 0.00 0.00 0.00 72 1021.3
20260905014916 65 158 1.0 2.0 0.00 0.00 0.00 71 1021.4
20260905014415 65 140 0.0 2.0 0.00 0.00 0.00 71 1021.3
20260905013917 65 135 2.0 3.0 0.00 0.00 0.00 70 1021.3
20260905013416 66 145 0.0 1.0 0.00 0.00 0.00 70 1021.3
20260905012915 66 158 1.0 2.0 0.00 0.00 0.00 70 1021.4
20260905012417 66 139 1.0 3.0 0.00 0.00 0.00 70 1021.3
20260905011916 66 135 3.0 5.0 0.00 0.00 0.00 71 1021.3
20260905011416 66 114 6.0 7.0 0.00 0.00 0.00 71 1021.3
20260905010915 66 135 2.0 3.0 0.00 0.00 0.00 71 1021.6
20260905010419 66 158 1.0 3.0 0.00 0.00 0.00 72 1021.5
20260905005918 65 133 2.0 3.0 0.00 0.00 0.00 72 1021.6
20260905005417 66 121 0.0 1.0 0.00 0.00 0.00 71 1021.7
20260905004917 66 132 2.0 3.0 0.00 0.00 0.00 71 1021.8
20260905004419 66 158 2.0 3.0 0.00 0.00 0.00 71 1021.8
20260905003918 66 135 1.0 3.0 0.00 0.00 0.00 71 1021.8
20260905003417 66 132 5.0 6.0 0.00 0.00 0.00 72 1021.9
20260905002918 66 135 3.0 5.0 0.00 0.00 0.00 72 1021.9
20260905002418 66 135 0.0 1.0 0.00 0.00 0.00 71 1022.0
20260905001917 67 135 0.0 1.0 0.00 0.00 0.00 71 1022.0
20260905001419 66 146 2.0 3.0 0.00 0.00 0.00 72 1022.1
20260905000918 66 143 0.0 1.0 0.00 0.00 0.00 72 1022.1
20260905000417 66 158 0.0 1.0 0.00 0.00 0.00 72 1022.1
20260904235918 66 129 1.0 2.0 0.00 0.00 0.00 72 1022.2
20260904235417 66 135 0.0 0.0 0.00 0.00 0.00 71 1022.3
20260904234918 67 158 3.0 6.0 0.00 0.00 0.00 71 1022.2
20260904234418 67 158 0.0 1.0 0.00 0.00 0.00 71 1022.2
20260904233918 67 135 0.0 1.0 0.00 0.00 0.00 71 1022.2
20260904233419 68 135 0.0 1.0 0.00 0.00 0.00 71 1022.3
20260904232918 68 143 1.0 3.0 0.00 0.00 0.00 71 1022.3
20260904232418 68 136 3.0 3.0 0.00 0.00 0.00 71 1022.3
20260904231918 67 135 1.0 2.0 0.00 0.00 0.00 72 1022.4
20260904231418 67 158 2.0 3.0 0.00 0.00 0.00 72 1022.5
20260904230917 67 158 1.0 2.0 0.00 0.00 0.00 72 1022.4
20260904230418 67 135 2.0 3.0 0.00 0.00 0.00 72 1022.4
20260904225918 67 135 0.0 1.0 0.00 0.00 0.00 72 1022.4
20260904225417 67 135 0.0 0.0 0.00 0.00 0.00 72 1022.3
20260904224917 67 135 2.0 3.0 0.00 0.00 0.00 72 1022.4
20260904224418 67 135 1.0 2.0 0.00 0.00 0.00 72 1022.3
20260904223917 68 135 2.0 2.0 0.00 0.00 0.00 72 1022.3
20260904223419 68 158 2.0 3.0 0.00 0.00 0.00 71 1022.3
20260904222918 68 158 1.0 2.0 0.00 0.00 0.00 71 1022.2
20260904222417 69 135 0.0 1.0 0.00 0.00 0.00 70 1022.2
20260904221919 69 135 0.0 2.0 0.00 0.00 0.00 70 1022.2
20260904221418 69 147 1.0 2.0 0.00 0.00 0.00 70 1022.1
20260904220918 69 158 2.0 6.0 0.00 0.00 0.00 70 1022.2
20260904220417 69 135 0.0 1.0 0.00 0.00 0.00 70 1022.1
20260904215919 70 141 3.0 3.0 0.00 0.00 0.00 70 1022.2
20260904215418 69 158 3.0 3.0 0.00 0.00 0.00 70 1022.2
20260904214917 70 137 1.0 2.0 0.00 0.00 0.00 70 1022.0
20260904214417 70 135 1.0 2.0 0.00 0.00 0.00 70 1022.2
20260904213918 70 158 1.0 2.0 0.00 0.00 0.00 69 1022.2
20260904213417 71 135 0.0 1.0 0.00 0.00 0.00 68 1022.2
20260904212918 71 135 2.0 3.0 0.00 0.00 0.00 68 1022.1
20260904212417 71 135 3.0 3.0 0.00 0.00 0.00 68 1022.2
20260904211917 71 142 2.0 2.0 0.00 0.00 0.00 68 1022.3
20260904211418 71 135 2.0 3.0 0.00 0.00 0.00 67 1022.4
20260904210918 71 135 0.0 2.0 0.00 0.00 0.00 66 1022.4
20260904210417 72 135 0.0 1.0 0.00 0.00 0.00 65 1022.4
20260904205917 72 158 3.0 5.0 0.00 0.00 0.00 65 1022.3
20260904205418 72 158 2.0 5.0 0.00 0.00 0.00 65 1022.2
20260904204918 72 135 2.0 3.0 0.00 0.00 0.00 65 1022.4
20260904204417 73 142 0.0 1.0 0.00 0.00 0.00 61 1022.4
20260904203917 73 135 1.0 3.0 0.00 0.00 0.00 61 1022.4
20260904203418 73 144 1.0 2.0 0.00 0.00 0.00 61 1022.4
20260904202917 73 156 2.0 6.0 0.00 0.00 0.00 62 1022.4
20260904202417 73 152 1.0 2.0 0.00 0.00 0.00 61 1022.4
20260904201918 73 158 6.0 8.0 0.00 0.00 0.00 61 1022.4
20260904201418 74 158 2.0 3.0 0.00 0.00 0.00 60 1022.4
20260904200917 74 135 0.0 1.0 0.00 0.00 0.00 60 1022.4
20260904200417 74 135 1.0 2.0 0.00 0.00 0.00 60 1022.5
20260904195918 75 135 1.0 2.0 0.00 0.00 0.00 59 1022.4
20260904195418 75 142 0.0 2.0 0.00 0.00 0.00 59 1022.3
20260904194917 74 135 3.0 6.0 0.00 0.00 0.00 60 1022.3
20260904194418 74 158 2.0 3.0 0.00 0.00 0.00 60 1022.3
20260904193918 74 135 1.0 5.0 0.00 0.00 0.00 59 1022.2
20260904193417 75 139 2.0 3.0 0.00 0.00 0.00 59 1022.3
20260904192917 75 158 3.0 5.0 0.00 0.00 0.00 58 1022.2
20260904192418 75 135 2.0 3.0 0.00 0.00 0.00 57 1022.3
20260904191918 76 156 2.0 3.0 0.00 0.00 0.00 57 1022.2
20260904191417 76 158 3.0 6.0 0.00 0.00 0.00 57 1022.3
20260904190919 76 158 2.0 3.0 0.00 0.00 0.00 57 1022.2
20260904190417 76 158 2.0 3.0 0.00 0.00 0.00 56 1022.1
20260904185917 76 158 2.0 3.0 0.00 0.00 0.00 57 1022.1
20260904185418 76 158 2.0 5.0 0.00 0.00 0.00 57 1021.9
20260904184918 76 158 1.0 2.0 0.00 0.00 0.00 57 1021.8
20260904184417 76 149 1.0 2.0 0.00 0.00 0.00 57 1021.8
20260904183917 76 153 2.0 3.0 0.00 0.00 0.00 57 1021.7
20260904183418 77 135 1.0 2.0 0.00 0.00 0.00 56 1021.7
20260904182917 77 135 1.0 1.0 0.00 0.00 0.00 56 1021.6
20260904182417 77 135 2.0 3.0 0.00 0.00 0.00 56 1021.5
20260904181917 78 135 1.0 2.0 0.00 0.00 0.00 54 1021.5
20260904181416 79 137 0.0 1.0 0.00 0.00 0.00 53 1021.3
20260904180918 79 158 0.0 1.0 0.00 0.00 0.00 53 1021.3
20260904180417 80 158 0.0 1.0 0.00 0.00 0.00 52 1021.4
20260904175918 81 158 0.0 1.0 0.00 0.00 0.00 50 1021.2
20260904175418 81 158 1.0 1.0 0.00 0.00 0.00 50 1021.2
20260904174917 82 142 1.0 1.0 0.00 0.00 0.00 45 1021.2
20260904174417 82 152 2.0 3.0 0.00 0.00 0.00 45 1021.2
20260904173918 82 135 2.0 3.0 0.00 0.00 0.00 44 1021.1
20260904173418 83 135 3.0 5.0 0.00 0.00 0.00 43 1021.2
20260904172917 83 135 6.0 7.0 0.00 0.00 0.00 42 1021.1
20260904172418 84 158 2.0 3.0 0.00 0.00 0.00 41 1021.2
20260904171917 85 158 3.0 3.0 0.00 0.00 0.00 40 1021.1
20260904171418 86 149 3.0 3.0 0.00 0.00 0.00 40 1021.1
20260904170917 86 135 5.0 6.0 0.00 0.00 0.00 40 1021.0
20260904170417 87 135 1.0 3.0 0.00 0.00 0.00 39 1021.1
20260904165918 87 135 6.0 7.0 0.00 0.00 0.00 37 1021.1
20260904165417 88 130 2.0 6.0 0.00 0.00 0.00 37 1021.1
20260904164917 88 147 2.0 5.0 0.00 0.00 0.00 36 1021.1
20260904164419 89 112 3.0 6.0 0.00 0.00 0.00 35 1021.1
20260904163918 90 135 1.0 5.0 0.00 0.00 0.00 35 1021.1
20260904163417 90 135 6.0 6.0 0.00 0.00 0.00 34 1021.1
20260904162917 90 128 3.0 6.0 0.00 0.00 0.00 34 1021.1
20260904162417 90 140 8.0 12.0 0.00 0.00 0.00 33 1021.1
20260904161918 90 135 5.0 6.0 0.00 0.00 0.00 34 1021.0
20260904161417 91 112 3.0 8.0 0.00 0.00 0.00 31 1021.1
20260904160918 91 112 5.0 6.0 0.00 0.00 0.00 31 1021.2
20260904160417 91 112 6.0 8.0 0.00 0.00 0.00 31 1021.1
20260904155418 91 131 8.0 13.0 0.00 0.00 0.00 31 1021.1
20260904154920 91 112 8.0 12.0 0.00 0.00 0.00 31 1021.2
20260904154419 91 134 6.0 15.0 0.00 0.00 0.00 31 1021.1
20260904153920 91 124 7.0 9.0 0.00 0.00 0.00 31 1021.2
20260904153420 91 112 8.0 10.0 0.00 0.00 0.00 31 1021.2
20260904152920 91 129 9.0 13.0 0.00 0.00 0.00 31 1021.3
20260904152419 91 135 5.0 6.0 0.00 0.00 0.00 31 1021.2
20260904151920 91 122 5.0 8.0 0.00 0.00 0.00 31 1021.2
20260904151420 91 112 7.0 8.0 0.00 0.00 0.00 31 1021.3
20260904150919 91 129 6.0 8.0 0.00 0.00 0.00 31 1021.4
20260904150419 91 120 5.0 13.0 0.00 0.00 0.00 31 1021.4
20260904145919 91 135 6.0 8.0 0.00 0.00 0.00 31 1021.4
20260904145419 92 151 7.0 10.0 0.00 0.00 0.00 31 1021.3
20260904144920 91 112 5.0 8.0 0.00 0.00 0.00 31 1021.3
20260904144420 91 124 8.0 13.0 0.00 0.00 0.00 31 1021.4
20260904143919 90 120 7.0 13.0 0.00 0.00 0.00 34 1021.4
20260904143420 91 121 8.0 13.0 0.00 0.00 0.00 31 1021.4
20260904142920 91 125 7.0 9.0 0.00 0.00 0.00 31 1021.4
20260904142419 91 112 9.0 10.0 0.00 0.00 0.00 30 1021.3
20260904141920 91 112 3.0 5.0 0.00 0.00 0.00 31 1021.4
20260904141420 91 143 6.0 10.0 0.00 0.00 0.00 31 1021.5
20260904140919 91 118 10.0 13.0 0.00 0.00 0.00 31 1021.3
20260904140420 91 136 8.0 16.0 0.00 0.00 0.00 31 1021.4
20260904135919 91 135 12.0 15.0 0.00 0.00 0.00 31 1021.4
20260904135420 91 128 7.0 10.0 0.00 0.00 0.00 31 1021.4
20260904134919 91 112 7.0 13.0 0.00 0.00 0.00 30 1021.5
20260904134419 92 131 9.0 13.0 0.00 0.00 0.00 30 1021.5
20260904133920 92 140 6.0 8.0 0.00 0.00 0.00 30 1021.6
20260904133420 91 157 7.0 13.0 0.00 0.00 0.00 30 1021.5
20260904132919 91 150 8.0 13.0 0.00 0.00 0.00 30 1021.6
20260904132420 91 122 9.0 12.0 0.00 0.00 0.00 30 1021.5
20260904131920 92 139 7.0 13.0 0.00 0.00 0.00 30 1021.7
20260904131419 91 143 3.0 6.0 0.00 0.00 0.00 31 1021.6
20260904130919 91 143 6.0 8.0 0.00 0.00 0.00 31 1021.7
20260904130418 91 134 9.0 14.0 0.00 0.00 0.00 31 1021.8
20260904125920 91 112 3.0 6.0 0.00 0.00 0.00 31 1021.8
20260904125419 90 125 6.0 8.0 0.00 0.00 0.00 34 1021.8
20260904124919 90 118 8.0 10.0 0.00 0.00 0.00 34 1021.9
20260904124420 90 135 6.0 9.0 0.00 0.00 0.00 33 1021.8
20260904123918 90 118 5.0 7.0 0.00 0.00 0.00 33 1022.0